GW4718 Weather Reports


time (UTC)temp
C
wind
direction
speed
KPH
gust
KPH
rain 1hr
cm
rain 24hr
cm
rain mn
cm
humidity
%
barometer
mb
20260905143513 20 244 0.0 1.6 0.30 0.66 0.66 98 1019.1
20260905143009 20 78 4.8 6.4 0.30 0.64 0.64 93 1018.8
20260905142507 20 173 1.6 9.7 0.48 0.61 0.61 93 1018.9
20260905142003 20 217 0.0 11.3 0.43 0.58 0.58 94 1019.4
20260905141457 21 198 6.4 9.7 0.30 0.53 0.53 91 1019.5
20260905140954 21 138 6.4 11.3 0.48 0.51 0.51 90 1019.6
20260905140448 21 241 4.8 22.5 0.43 0.48 0.48 88 1019.7
20260905135947 21 221 8.0 11.3 0.48 0.43 0.43 90 1019.8
20260905135443 21 125 3.2 11.3 0.66 0.41 0.41 94 1019.7
20260905134938 21 199 6.4 14.5 0.43 0.36 0.36 94 1019.3
20260905134438 21 104 3.2 9.7 0.43 0.30 0.30 95 1019.2
20260905133937 21 255 0.0 4.8 0.48 0.28 0.28 97 1019.4
20260905133432 22 222 0.0 4.8 0.61 0.23 0.23 93 1019.1
20260905132931 22 206 9.7 20.9 1.07 0.20 0.20 91 1018.9
20260905132426 21 161 6.4 17.7 0.66 0.13 0.13 95 1018.7
20260905131921 21 188 3.2 4.8 0.00 0.03 0.03 99 1018.3
20260905131417 21 301 0.0 4.8 0.00 0.03 0.03 98 1018.0
20260905130912 21 176 0.0 1.6 0.00 0.03 0.03 99 1017.6
20260905130412 21 78 3.2 4.8 0.00 0.03 0.03 99 1017.3
20260905125906 21 65 0.0 0.0 0.00 0.03 0.03 99 1017.5
20260905125401 21 108 3.2 4.8 0.00 0.03 0.03 99 1017.2
20260905124857 21 321 3.2 3.2 0.00 0.03 0.03 98 1017.0
20260905124353 21 85 4.8 4.8 0.00 0.03 0.03 99 1016.9
20260905123853 21 312 0.0 1.6 0.00 0.03 0.03 99 1016.9
20260905123350 21 213 1.6 3.2 0.00 0.03 0.03 99 1016.8
20260905122850 21 57 1.6 9.7 0.00 0.03 0.03 99 1016.9
20260905122344 21 43 6.4 9.7 0.00 0.03 0.03 99 1016.9
20260905121839 20 7 0.0 0.0 0.00 0.03 0.03 99 1017.1
20260905121336 20 243 0.0 1.6 0.00 0.03 0.03 99 1017.0
20260905120834 20 71 0.0 0.0 0.00 0.03 0.03 99 1016.9
20260905120329 20 279 0.0 4.8 0.00 0.03 0.03 99 1017.0
20260905115824 20 48 0.0 0.0 0.00 0.03 0.03 99 1017.1
20260905115324 20 50 0.0 4.8 0.00 0.03 0.03 99 1017.0
20260905114823 20 306 1.6 1.6 0.00 0.03 0.03 99 1017.0
20260905114322 20 102 1.6 3.2 0.00 0.03 0.03 99 1017.0
20260905113821 19 310 0.0 0.0 0.00 0.03 0.03 99 1016.8
20260905113317 19 116 0.0 3.2 0.00 0.03 0.03 99 1016.8
20260905112813 19 151 0.0 0.0 0.13 0.03 0.03 99 1016.9
20260905112307 19 18 0.0 0.0 0.13 0.03 0.03 99 1017.0
20260905111802 19 302 0.0 0.0 0.00 0.00 0.00 99 1016.8
20260905111257 18 70 0.0 0.0 0.00 0.00 0.00 99 1016.7
20260905110756 18 28 0.0 0.0 0.00 0.00 0.00 99 1016.7
20260905110250 18 76 0.0 0.0 0.00 0.00 0.00 99 1016.7
20260905105746 18 72 0.0 0.0 0.00 0.00 0.00 99 1016.7
20260905105245 17 93 0.0 0.0 0.00 0.00 0.00 99 1016.7
20260905104739 18 326 0.0 0.0 0.00 0.00 0.00 99 1016.8
20260905104236 17 60 0.0 0.0 0.00 0.00 0.00 99 1016.7
20260905103730 17 245 0.0 0.0 0.00 0.00 0.00 99 1016.7
20260905103226 17 301 0.0 0.0 0.00 0.00 0.00 99 1017.0
20260905102721 17 88 0.0 0.0 0.00 0.00 0.00 99 1017.0
20260905102218 17 110 0.0 0.0 0.00 0.00 0.00 99 1017.2
20260905101717 17 92 0.0 0.0 0.00 0.00 0.00 99 1017.2
20260905101215 17 95 0.0 3.2 0.00 0.00 0.00 99 1017.3
20260905100712 17 264 0.0 0.0 0.00 0.00 0.00 99 1017.2
20260905100207 17 17 0.0 0.0 0.00 0.00 0.00 99 1017.1
20260905095706 17 333 0.0 0.0 0.00 0.00 0.00 99 1017.2
20260905095200 17 99 0.0 0.0 0.00 0.00 0.00 99 1017.2
20260905094655 17 132 0.0 0.0 0.00 0.00 0.00 99 1017.0
20260905094155 17 36 1.6 4.8 0.00 0.00 0.00 99 1016.7
20260905093655 17 354 0.0 0.0 0.00 0.00 0.00 99 1016.9
20260905093151 17 219 0.0 0.0 0.00 0.00 0.00 99 1016.9
20260905092646 17 294 0.0 0.0 0.00 0.00 0.00 99 1016.9
20260905092143 17 65 0.0 0.0 0.00 0.00 0.00 99 1016.8
20260905091641 17 82 0.0 0.0 0.00 0.00 0.00 99 1016.8
20260905091135 17 92 0.0 0.0 0.00 0.00 0.00 99 1016.5
20260905090630 17 228 0.0 0.0 0.00 0.00 0.00 99 1016.5
20260905090125 17 284 0.0 0.0 0.00 0.00 0.00 99 1016.7
20260905085624 17 305 0.0 0.0 0.00 0.00 0.00 99 1016.9
20260905085120 17 305 0.0 3.2 0.00 0.00 0.00 99 1017.0
20260905084619 17 314 1.6 3.2 0.00 0.00 0.00 99 1016.9
20260905084114 17 271 0.0 0.0 0.00 0.00 0.00 99 1017.0
20260905083608 17 235 0.0 0.0 0.00 0.00 0.00 99 1017.0
20260905083105 17 157 0.0 0.0 0.00 0.00 0.00 99 1016.9
20260905082600 17 267 0.0 4.8 0.00 0.00 0.00 99 1016.9
20260905082056 17 9 0.0 3.2 0.00 0.00 0.00 99 1016.9
20260905081555 17 283 0.0 0.0 0.00 0.00 0.00 99 1017.0
20260905081050 17 77 0.0 0.0 0.00 0.00 0.00 99 1017.2
20260905080550 17 53 0.0 0.0 0.00 0.00 0.00 99 1017.2
20260905080046 17 84 4.8 4.8 0.00 0.00 0.00 99 1016.9
20260905075544 17 124 0.0 0.0 0.00 0.00 0.00 99 1017.0
20260905075038 17 85 0.0 0.0 0.00 0.00 0.00 99 1017.1
20260905074532 17 72 0.0 0.0 0.00 0.00 0.00 99 1017.4
20260905074028 17 265 0.0 0.0 0.00 0.00 0.00 99 1017.3
20260905073523 17 55 1.6 3.2 0.00 0.00 0.00 99 1017.6
20260905073019 17 48 1.6 1.6 0.00 0.00 0.00 99 1017.5
20260905072518 18 330 0.0 1.6 0.00 0.00 0.00 99 1017.5
20260905072014 18 9 0.0 3.2 0.00 0.00 0.00 99 1017.7
20260905071511 18 67 3.2 4.8 0.00 0.00 0.00 99 1017.4
20260905071011 18 344 0.0 1.6 0.00 0.00 0.00 99 1017.6
20260905070506 18 330 0.0 0.0 0.00 0.00 0.00 99 1017.9
20260905070002 18 48 0.0 1.6 0.00 0.00 0.00 99 1018.1
20260905065459 18 354 0.0 3.2 0.00 0.00 0.00 99 1018.2
20260905064955 18 69 8.0 9.7 0.00 0.00 0.00 99 1018.0
20260905064449 18 51 0.0 0.0 0.00 0.00 0.00 99 1018.2
20260905063944 18 53 0.0 0.0 0.00 0.00 0.00 99 1018.1
20260905063433 18 313 0.0 0.0 0.00 0.00 0.00 99 1018.6
20260905062930 18 281 0.0 0.0 0.00 0.00 0.00 99 1018.3
20260905062429 18 109 0.0 0.0 0.00 0.00 0.00 99 1018.5
20260905061925 18 46 0.0 0.0 0.00 0.00 0.00 99 1018.7
20260905061424 18 42 1.6 4.8 0.00 0.00 0.00 99 1018.7
20260905060923 18 322 0.0 0.0 0.00 0.00 0.00 99 1018.6
20260905060420 17 53 3.2 4.8 0.00 0.00 0.00 99 1018.9
20260905055919 18 92 0.0 0.0 0.00 0.00 0.00 99 1018.9
20260905055415 18 107 0.0 0.0 0.00 0.00 0.00 99 1018.8
20260905054913 18 87 0.0 0.0 0.00 0.00 0.00 99 1019.2
20260905054411 17 42 0.0 0.0 0.00 0.00 0.00 99 1019.3
20260905053910 17 42 0.0 0.0 0.00 0.00 0.00 99 1019.3
20260905053405 17 72 0.0 0.0 0.00 0.00 0.00 99 1019.4
20260905052900 17 275 0.0 0.0 0.00 0.00 0.00 99 1019.6
20260905052359 17 335 0.0 0.0 0.00 0.00 0.00 99 1019.5
20260905051854 17 332 0.0 0.0 0.00 0.00 0.00 99 1019.6
20260905051350 17 58 0.0 0.0 0.00 0.00 0.00 99 1019.5
20260905050847 17 324 0.0 0.0 0.00 0.00 0.00 99 1019.7
20260905050343 17 74 0.0 0.0 0.00 0.00 0.00 99 1019.5
20260905045843 17 239 0.0 0.0 0.00 0.00 0.00 99 1019.9
20260905045338 18 239 0.0 0.0 0.00 0.00 0.00 99 1019.8
20260905044833 17 86 0.0 0.0 0.00 0.00 0.00 99 1020.1
20260905044328 17 263 0.0 0.0 0.00 0.00 0.00 99 1020.0
20260905043827 17 125 0.0 0.0 0.00 0.00 0.00 99 1020.3
20260905043321 17 125 0.0 0.0 0.00 0.00 0.00 99 1020.1
20260905042816 17 125 0.0 0.0 0.00 0.00 0.00 99 1019.9
20260905042310 18 180 0.0 0.0 0.00 0.00 0.00 99 1020.3
20260905041806 18 227 0.0 0.0 0.00 0.00 0.00 99 1020.3
20260905041302 18 88 0.0 0.0 0.00 0.00 0.00 99 1020.3
20260905040756 18 93 0.0 0.0 0.00 0.00 0.00 99 1020.4
20260905040255 18 91 0.0 0.0 0.00 0.71 0.71 99 1020.1
20260905035750 18 116 0.0 0.0 0.00 0.71 0.71 99 1020.4
20260905035246 18 118 0.0 0.0 0.00 0.71 0.71 99 1020.5
20260905034743 18 45 0.0 0.0 0.00 0.71 0.71 99 1020.4
20260905034243 18 45 0.0 0.0 0.00 0.71 0.71 99 1020.3
20260905033741 18 53 0.0 0.0 0.00 0.71 0.71 99 1020.3
20260905033237 18 9 0.0 0.0 0.00 0.71 0.71 99 1020.3
20260905032736 18 93 0.0 0.0 0.00 0.71 0.71 99 1020.1
20260905032232 18 35 0.0 0.0 0.00 0.71 0.71 99 1020.0
20260905031727 18 94 0.0 0.0 0.00 0.71 0.71 99 1020.1
20260905031223 18 244 0.0 0.0 0.00 0.71 0.71 99 1019.9
20260905030718 18 338 0.0 0.0 0.00 0.71 0.71 99 1019.8
20260905030213 18 336 0.0 0.0 0.00 0.71 0.71 99 1020.0
20260905025707 18 50 0.0 3.2 0.00 0.71 0.71 99 1019.8
20260905025203 18 39 0.0 0.0 0.00 0.71 0.71 99 1019.8
20260905024658 18 37 0.0 0.0 0.00 0.71 0.71 99 1019.7
20260905024154 18 48 0.0 1.6 0.00 0.71 0.71 99 1020.0
20260905023649 18 54 0.0 1.6 0.00 0.71 0.71 99 1019.8
20260905023148 18 18 0.0 1.6 0.00 0.71 0.71 99 1019.7
20260905022647 18 133 0.0 0.0 0.00 0.71 0.71 99 1019.6
20260905022143 18 181 0.0 1.6 0.00 0.71 0.71 99 1019.4
20260905021642 18 270 1.6 3.2 0.00 0.71 0.71 99 1019.4
20260905021138 18 243 0.0 3.2 0.00 0.71 0.71 99 1019.3
20260905020633 18 225 0.0 0.0 0.00 0.71 0.71 99 1019.2
20260905020128 18 217 0.0 1.6 0.00 0.71 0.71 99 1019.2
20260905015626 18 192 1.6 4.8 0.00 0.71 0.71 99 1019.2
20260905015121 18 182 1.6 1.6 0.00 0.71 0.71 99 1019.3
20260905014614 18 152 0.0 0.0 0.00 0.71 0.71 99 1019.4
20260905014111 18 213 0.0 0.0 0.00 0.71 0.71 99 1019.2
20260905013607 18 228 0.0 0.0 0.00 0.71 0.71 99 1019.1
20260905013103 18 239 0.0 0.0 0.00 0.71 0.71 99 1019.0
20260905012601 18 223 0.0 0.0 0.00 0.71 0.71 99 1019.1
20260905012059 18 38 0.0 0.0 0.00 0.71 0.71 99 1019.0
20260905011555 18 38 0.0 0.0 0.00 0.71 0.71 99 1019.0
20260905011050 18 38 0.0 0.0 0.00 0.71 0.71 99 1019.1
20260905010544 18 62 0.0 0.0 0.00 0.71 0.71 99 1019.1
20260905010041 18 49 0.0 0.0 0.00 0.71 0.71 99 1018.9
20260905005536 18 304 0.0 0.0 0.00 0.71 0.71 99 1018.9
20260905005032 18 273 0.0 0.0 0.00 0.71 0.71 99 1019.2
20260905004532 18 234 0.0 0.0 0.00 0.71 0.71 99 1019.0
20260905004027 18 176 0.0 0.0 0.00 0.71 0.71 99 1019.0
20260905003523 18 143 0.0 0.0 0.00 0.71 0.71 99 1019.2
20260905003018 19 98 0.0 0.0 0.00 0.71 0.71 99 1019.2
20260905002513 19 85 0.0 0.0 0.00 0.71 0.71 99 1019.1
20260905002008 19 155 0.0 0.0 0.00 0.71 0.71 99 1019.1
20260905001503 19 153 0.0 0.0 0.00 0.71 0.71 99 1019.2
20260905000957 19 155 0.0 0.0 0.00 0.71 0.71 99 1019.0
20260905000454 19 155 0.0 0.0 0.00 0.71 0.71 99 1019.1
20260904235948 19 155 0.0 0.0 0.00 0.71 0.71 99 1019.0
20260904235443 19 155 0.0 0.0 0.00 0.71 0.71 99 1019.0
20260904234937 19 137 0.0 0.0 0.00 0.71 0.71 99 1019.2
20260904234437 19 206 0.0 0.0 0.00 0.71 0.71 99 1019.0
20260904233934 19 223 0.0 0.0 0.00 0.71 0.71 99 1018.9
20260904233429 20 108 0.0 1.6 0.00 0.71 0.71 99 1018.9
20260904232925 20 46 0.0 0.0 0.00 0.71 0.71 99 1019.1
20260904232421 20 348 0.0 0.0 0.00 0.71 0.71 99 1019.1
20260904231918 20 35 0.0 1.6 0.00 0.71 0.71 99 1019.1
20260904231413 20 55 4.8 4.8 0.00 0.71 0.71 99 1019.1
20260904230908 20 58 0.0 0.0 0.00 0.71 0.71 99 1019.1
20260904230406 20 40 0.0 0.0 0.00 0.71 0.71 99 1019.0
20260904225901 20 8 0.0 0.0 0.00 0.71 0.71 99 1018.8
20260904225359 20 101 0.0 0.0 0.00 0.71 0.71 98 1018.7
20260904224859 20 83 1.6 3.2 0.00 0.71 0.71 98 1018.9
20260904224355 20 56 0.0 0.0 0.00 0.71 0.71 98 1018.9
20260904223849 20 104 0.0 0.0 0.00 0.71 0.71 98 1018.7
20260904223348 20 102 0.0 0.0 0.00 0.71 0.71 98 1018.8
20260904222844 20 215 1.6 1.6 0.00 0.71 0.71 99 1018.6
20260904222339 20 227 3.2 4.8 0.00 0.71 0.71 99 1018.7
20260904221839 20 221 3.2 4.8 0.00 0.71 0.71 98 1018.8
20260904221334 20 238 0.0 4.8 0.00 0.71 0.71 98 1018.9
20260904220829 20 174 3.2 3.2 0.00 0.71 0.71 97 1019.0
20260904220328 19 196 0.0 3.2 0.00 0.71 0.71 97 1019.0
20260904215824 19 20 0.0 0.0 0.00 0.71 0.71 98 1019.3
20260904215319 19 88 0.0 1.6 0.00 0.71 0.71 97 1019.8
20260904214815 20 62 3.2 4.8 0.00 0.71 0.71 97 1019.8
20260904214310 20 140 0.0 0.0 0.00 0.71 0.71 96 1019.7
20260904213808 20 238 0.0 0.0 0.00 0.71 0.71 96 1019.6
20260904213304 20 293 4.8 6.4 0.00 0.71 0.71 94 1019.7
20260904212759 20 257 3.2 3.2 0.30 0.71 0.71 94 1019.0
20260904212254 20 128 3.2 4.8 0.48 0.71 0.71 93 1019.7
20260904211749 20 222 3.2 4.8 0.18 0.66 0.66 94 1019.5
20260904211244 20 236 0.0 3.2 0.13 0.64 0.64 93 1019.8
20260904210739 21 243 4.8 6.4 0.13 0.64 0.64 91 1020.1
20260904210233 20 73 8.0 11.3 0.00 0.61 0.61 87 1019.8
20260904205730 20 117 3.2 4.8 0.00 0.61 0.61 91 1020.7
20260904205225 20 95 4.8 6.4 0.00 0.61 0.61 91 1020.6
20260904204722 20 102 6.4 11.3 0.00 0.61 0.61 85 1021.1
20260904204217 21 125 3.2 9.7 0.18 0.61 0.61 87 1021.5
20260904203713 22 88 8.0 11.3 0.30 0.58 0.58 85 1021.4
20260904203210 22 99 6.4 17.7 0.30 0.58 0.58 81 1021.4
20260904202705 23 189 9.7 48.3 0.00 0.53 0.53 79 1021.5
20260904202201 24 294 11.3 25.7 0.00 0.53 0.53 76 1022.2
20260904201656 25 221 3.2 12.9 0.00 0.53 0.53 77 1021.5
20260904201151 26 243 6.4 17.7 0.00 0.53 0.53 75 1021.2
20260904200650 26 338 3.2 3.2 0.00 0.53 0.53 81 1020.6
20260904200146 26 14 4.8 6.4 0.00 0.53 0.53 80 1019.9
20260904195644 27 25 3.2 9.7 0.00 0.53 0.53 76 1019.7
20260904195143 27 25 6.4 6.4 0.00 0.53 0.53 74 1019.6
20260904194638 28 18 3.2 6.4 0.00 0.53 0.53 72 1019.5
20260904194132 28 43 3.2 6.4 0.00 0.53 0.53 71 1019.3
20260904193627 28 145 1.6 4.8 0.00 0.53 0.53 70 1019.0
20260904193124 29 2 3.2 4.8 0.00 0.53 0.53 69 1019.1
20260904192623 30 60 0.0 0.0 0.00 0.53 0.53 62 1018.9
20260904192119 31 305 3.2 3.2 0.00 0.53 0.53 59 1018.9
20260904191616 31 209 0.0 0.0 0.00 0.53 0.53 64 1019.0
20260904191112 30 284 1.6 3.2 0.00 0.53 0.53 62 1018.9
20260904190607 30 178 1.6 11.3 0.00 0.53 0.53 59 1018.8
20260904185600 30 297 1.6 1.6 0.00 0.53 0.53 60 1018.5
20260904185054 31 101 3.2 3.2 0.00 0.53 0.53 57 1018.5
20260904184548 30 35 0.0 1.6 0.00 0.53 0.53 58 1018.6
20260904184043 30 287 3.2 3.2 0.00 0.53 0.53 59 1018.8
20260904183544 30 192 1.6 1.6 0.00 0.53 0.53 64 1019.1
20260904183039 30 142 1.6 6.4 0.00 0.53 0.53 65 1019.0
20260904182535 31 126 0.0 1.6 0.00 0.53 0.53 66 1019.3
20260904182035 31 37 1.6 3.2 0.00 0.53 0.53 63 1019.4
20260904181530 30 1 0.0 0.0 0.00 0.53 0.53 63 1019.5
20260904181024 30 333 3.2 6.4 0.00 0.53 0.53 61 1019.7
20260904180519 30 149 4.8 4.8 0.00 0.53 0.53 61 1019.5
20260904180014 31 303 1.6 6.4 0.00 0.53 0.53 59 1019.5
20260904175509 31 267 0.0 9.7 0.00 0.53 0.53 60 1019.7
20260904175007 31 226 4.8 6.4 0.00 0.53 0.53 62 1019.7
20260904174502 30 22 0.0 1.6 0.00 0.53 0.53 65 1019.7
20260904173959 31 22 0.0 1.6 0.00 0.53 0.53 63 1019.7
20260904173453 32 21 1.6 1.6 0.00 0.53 0.53 59 1019.7
20260904172949 32 89 0.0 4.8 0.00 0.53 0.53 56 1019.8
20260904172444 32 269 1.6 1.6 0.00 0.53 0.53 64 1019.8
20260904171938 31 278 3.2 4.8 0.00 0.53 0.53 60 1019.8
20260904171434 31 259 0.0 6.4 0.00 0.53 0.53 64 1020.0
20260904170930 31 174 4.8 11.3 0.00 0.53 0.53 59 1019.9
20260904170425 31 256 1.6 3.2 0.00 0.53 0.53 63 1019.9
20260904165920 30 300 6.4 20.9 0.00 0.53 0.53 62 1020.1
20260904165419 30 272 3.2 4.8 0.00 0.53 0.53 64 1020.1
20260904164919 30 269 1.6 4.8 0.00 0.53 0.53 65 1020.1
20260904164419 30 273 6.4 11.3 0.00 0.53 0.53 65 1020.5
20260904163915 30 16 0.0 6.4 0.00 0.53 0.53 64 1020.1
20260904163414 30 4 0.0 4.8 0.00 0.53 0.53 65 1020.5
20260904162914 31 331 0.0 6.4 0.00 0.53 0.53 70 1020.7
20260904162410 30 92 4.8 4.8 0.00 0.53 0.53 64 1020.7
20260904161905 30 7 6.4 6.4 0.00 0.53 0.53 67 1020.7
20260904161400 30 66 3.2 6.4 0.00 0.53 0.53 64 1020.6
20260904160856 31 15 1.6 3.2 0.00 0.53 0.53 66 1020.5
20260904160350 30 129 0.0 3.2 0.00 0.53 0.53 68 1020.6
20260904155846 31 304 3.2 4.8 0.00 0.53 0.53 67 1020.8
20260904155340 31 73 0.0 3.2 0.00 0.53 0.53 66 1020.7
20260904154838 30 240 3.2 4.8 0.00 0.53 0.53 68 1020.8
20260904154333 30 126 3.2 4.8 0.00 0.53 0.53 72 1020.8
20260904153829 30 335 0.0 3.2 0.00 0.53 0.53 66 1020.6
20260904153324 29 62 4.8 17.7 0.00 0.53 0.53 68 1020.8
20260904152821 29 170 1.6 11.3 0.00 0.53 0.53 72 1020.6
20260904152320 30 284 4.8 4.8 0.00 0.53 0.53 70 1020.6
20260904151815 29 51 1.6 4.8 0.00 0.53 0.53 69 1020.6
20260904151314 28 138 6.4 14.5 0.00 0.53 0.53 70 1020.5
20260904150811 28 343 1.6 9.7 0.00 0.53 0.53 72 1020.6
20260904150306 29 78 11.3 14.5 0.00 0.53 0.53 69 1020.7
20260904145803 28 193 3.2 6.4 0.00 0.53 0.53 75 1020.8
20260904145259 28 73 3.2 4.8 0.00 0.53 0.53 76 1020.6
20260904144755 28 201 0.0 9.7 0.00 0.53 0.53 73 1021.0
20260904144251 28 71 3.2 4.8 0.00 0.53 0.53 74 1020.8